アトラス彗星

C/2025 D6 ( ATLAS )

English version
Home page
Updated on May 3, 2025

---------------------------------------------------------------------

・ プロフィール

発見日 2025年2月26日
発見光度 18.4等
発見者 Asteroid Terrestrial-Impact Last Alert System (ATLAS) search program

・ 写真集

・ 軌道要素

Epoch 2025 May 5.0 TT = JDT 2460800.5
T 2024 Dec. 11.38446 TT                                 Payne
q   2.5038997            (2000.0)            P               Q
z  +0.0006183      Peri.  285.40362     -0.61398460     -0.74229060
 +/-0.0000991      Node   151.48730     -0.31083072     +0.53992000
e   0.9984518      Incl.  145.79028     -0.72553923     +0.39685143
From 139 observations 2025 Feb. 26-Apr. 30, mean residual 0".5.

・ 光度変化

        m1 = 12.5 + 5 logΔ + 10.0 log r

---------------------------------------------------------------------

軌道要素はM.P.E.C. 2025-J08に掲載されたものです。
光度グラフはComet for Windowsで作成したものです。

---------------------------------------------------------------------

Copyright(C) Seiichi Yoshida (comet@aerith.net). All rights reserved.